Flag for USA

Past Weather in Macon, Georgia, USA — Yesterday and Last 2 Weeks

Now
62 °F

Clear.


Feels Like: 62 °F
Forecast: 76 / 58 °F
Wind: No wind

Location: Middle Georgia Regional Airport
Current Time: Sep 23, 2020 at 3:37:21 am
Latest Report: Sep 23, 2020 at 2:53 am
Visibility: 10 mi
Pressure30.07 "Hg
Humidity: 86%
Dew Point: 58 °F
Location of MaconLocation

Past Weather in Macon — Graph

°F

Macon Temperature Yesterday

Maximum temperature yesterday: 76 °F (at 3:53 pm)
Minimum temperature yesterday: 52 °F (at 6:53 am)
Average temperature yesterday: 64 °F

High & Low Weather Summary for the Past Weeks

 TemperatureHumidityPressure
High93 °F (Sep 11, 4:53 pm)97% (Sep 14, 7:39 am)30.35 "Hg (Sep 14, 7:39 am)
Low52 °F (Sep 22, 6:53 am)38% (Sep 8, 2:53 pm)29.67 "Hg (Sep 17, 5:53 am)
Average74 °F79%30.03 "Hg
* Reported Sep 8 1:53 am — Sep 23 1:53 am, Macon. Weather by CustomWeather, © 2020

Note: Actual official high and low records may vary slightly from our data, if they occured in-between our weather recording intervals... More about our weather records

Macon Weather History for the Previous 24 Hours

Scroll right to see more
 ConditionsComfort  
Time TempWeatherWind HumidityBarometerVisibility
1:53 am
Wed, Sep 23
61 °FClear.No wind93%30.09 "Hg10 mi
12:53 am62 °FClear.No wind90%30.10 "Hg10 mi
11:53 pm
Tue, Sep 22
63 °FClear.No wind87%30.11 "Hg10 mi
10:53 pm63 °FClear.No wind90%30.12 "Hg10 mi
9:53 pm66 °FClear.No wind78%30.12 "Hg10 mi
8:53 pm66 °FClear.5 mph78%30.12 "Hg10 mi
7:53 pm68 °FClear.3 mph68%30.11 "Hg10 mi
6:53 pm72 °FSunny.3 mph59%30.11 "Hg10 mi
5:53 pm73 °FSunny.6 mph55%30.12 "Hg10 mi
4:53 pm75 °FPassing clouds.No wind50%30.13 "Hg10 mi
3:53 pm76 °FSunny.6 mph48%30.15 "Hg10 mi
2:53 pm75 °FSunny.No wind50%30.17 "Hg10 mi
1:53 pm73 °FPassing clouds.5 mph51%30.20 "Hg10 mi
12:53 pm72 °FSunny.9 mph52%30.23 "Hg10 mi
11:53 am67 °FSunny.7 mph55%30.26 "Hg10 mi
10:53 am67 °FSunny.10 mph57%30.28 "Hg10 mi
9:53 am62 °FSunny.8 mph67%30.28 "Hg10 mi
8:53 am57 °FSunny.10 mph78%30.27 "Hg10 mi
7:53 am53 °FSunny.6 mph86%30.27 "Hg10 mi
6:53 am52 °FClear.5 mph89%30.26 "Hg10 mi
5:53 am53 °FClear.6 mph86%30.24 "Hg10 mi
4:53 am53 °FClear.7 mph89%30.24 "Hg10 mi
3:53 am54 °FClear.6 mph86%30.25 "Hg10 mi
Weather by CustomWeather, © 2020

See weather overview